Stations météo

réclame
Mon MeteoGroup
Lakenheath/RAF, Grande-Bretagne (3583): Température de l'air & dewpoint: 17.10.2018 06:00:00 - 23.10.2018 06:00:00 (BST)Lakenheath/RAF, Grande-Bretagne (3583): Vitesse du vent: 17.10.2018 06:00:00 - 23.10.2018 06:00:00 (BST)Lakenheath/RAF, Grande-Bretagne (3583): Direction du vent: 17.10.2018 06:00:00 - 23.10.2018 06:00:00 (BST)Lakenheath/RAF, Grande-Bretagne (3583): reduced air pressure: 17.10.2018 06:00:00 - 23.10.2018 06:00:00 (BST)Lakenheath/RAF, Grande-Bretagne (3583): visibility: 17.10.2018 06:00:00 - 23.10.2018 06:00:00 (BST)Lakenheath/RAF, Grande-Bretagne (3583): Quantités de précipitations: 17.10.2018 06:00:00 - 23.10.2018 06:00:00 (BST)
Date & Time tt [°C] td [°C] ff [km/h] ff [knt] dd ppp [hPa] vv [km] rr [mm]
23.10.2018 06:00:00 7,1 4,2 24 13 WSW 1029,5 10 -
23.10.2018 05:00:00 6,7 4,0 24 13 WSW 1030,5 10 -
23.10.2018 04:00:00 6,2 3,7 18 10 WSW 1031,5 10 -
23.10.2018 03:00:00 6,7 3,8 16 9 WSW 1031,8 10 -
23.10.2018 02:00:00 7,2 4,0 16 9 WSW 1032,5 10 -
23.10.2018 01:00:00 6,6 3,7 18 10 WSW 1033,5 10 -
23.10.2018 00:00:00 6,1 3,4 15 8 WSW 1034,5 10 -
22.10.2018 23:00:00 5,3 2,8 11 6 WSW 1034,9 10 -
22.10.2018 22:00:00 4,6 1,8 9 5 WSW 1035,6 10 -
22.10.2018 21:00:00 4,6 1,8 5 3 SSW 1035,6 10 -
22.10.2018 20:00:00 5,5 2,1 8 4 SW 1036,2 10 -
22.10.2018 19:00:00 7,0 3,1 0 0 N 1036,6 10 -
22.10.2018 18:00:00 8,9 3,3 0 0 N 1036,2 10 -
22.10.2018 17:00:00 11,4 3,4 8 4 NNW 1036,2 10 -
22.10.2018 16:00:00 12,0 3,2 15 8 NNW 1036,6 10 -
22.10.2018 15:00:00 12,3 4,3 15 8 NW 1036,9 10 -
22.10.2018 14:00:00 12,2 3,9 13 7 N 1036,9 10 -
22.10.2018 13:00:00 11,7 4,9 16 9 NNW 1037,2 10 -
22.10.2018 12:00:00 11,4 4,8 18 10 NNW 1037,2 10 -
22.10.2018 11:00:00 10,0 5,0 16 9 NNW 1036,5 10 -
22.10.2018 10:00:00 8,2 4,2 9 5 NW 1036,9 10 -
22.10.2018 09:00:00 5,9 2,7 8 4 WNW 1036,2 10 -
22.10.2018 08:00:00 4,1 2,0 9 5 WNW 1035,2 10 -
22.10.2018 07:00:00 4,7 2,1 0 0 N 1034,5 10 -
22.10.2018 06:00:00 5,5 2,7 5 3 NW 1034,2 10 -
22.10.2018 05:00:00 6,4 3,4 8 4 NW 1033,5 10 -
22.10.2018 04:00:00 6,7 4,0 9 5 NW 1032,8 10 -
22.10.2018 03:00:00 8,2 5,3 9 5 NW 1032,5 10 -
22.10.2018 02:00:00 10,1 6,1 11 6 NNW - 10 -
22.10.2018 01:00:00 12,0 5,8 13 7 N - 10 -
22.10.2018 00:00:00 12,7 6,9 15 8 N - 10 -
21.10.2018 23:00:00 13,0 9,1 13 7 NNW - 10 0,0
21.10.2018 22:00:00 14,6 11,4 18 10 N - 10 0,0
21.10.2018 21:00:00 14,9 12,9 11 6 NW - 10 0,0
21.10.2018 20:00:00 16,1 12,3 11 6 NW 1027,1 10 -
21.10.2018 19:00:00 15,5 12,1 5 3 W 1026,4 10 -
21.10.2018 18:00:00 16,3 12,1 5 3 WSW 1026,0 10 -
21.10.2018 17:00:00 16,8 11,5 13 7 WSW 1025,4 10 -
21.10.2018 16:00:00 18,3 10,9 13 7 W 1025,0 10 -
21.10.2018 15:00:00 18,2 10,5 16 9 W 1025,4 10 -
21.10.2018 14:00:00 18,1 10,0 16 9 W 1025,4 10 -
21.10.2018 13:00:00 16,8 10,4 13 7 SW 1025,7 10 -
21.10.2018 12:00:00 15,5 10,5 15 8 SW 1026,4 10 -
21.10.2018 11:00:00 14,1 10,5 16 9 SW 1026,7 10 -
21.10.2018 10:00:00 13,0 10,2 13 7 SSW 1027,1 10 -
21.10.2018 09:00:00 10,5 9,1 5 3 S 1027,1 10 -
21.10.2018 08:00:00 6,5 5,4 0 0 N 1027,1 10 -
21.10.2018 07:00:00 7,2 6,0 0 0 N 1027,1 1,6 -
21.10.2018 06:00:00 8,1 6,9 0 0 N 1027,1 10 -
21.10.2018 05:00:00 8,0 6,8 0 0 N 1027,4 10 -
21.10.2018 04:00:00 7,8 6,6 5 3 S 1027,7 10 -
21.10.2018 03:00:00 7,6 6,4 0 0 N 1028,4 10 -
21.10.2018 02:00:00 8,8 7,2 0 0 N 1028,8 10 -
21.10.2018 01:00:00 9,2 7,5 0 0 N 1028,8 10 -
21.10.2018 00:00:00 9,4 7,8 0 0 N 1029,1 10 -
20.10.2018 23:00:00 11,0 8,4 8 4 WSW 1029,1 10 -
20.10.2018 22:00:00 10,9 8,3 5 3 WSW 1029,4 10 -
20.10.2018 21:00:00 11,8 8,8 11 6 WSW 1029,4 10 -
20.10.2018 20:00:00 13,9 10,3 9 5 SW 1029,8 10 -
20.10.2018 19:00:00 15,0 10,4 5 3 S 1029,8 10 -
20.10.2018 18:00:00 15,2 11,0 5 3 SSW 1029,5 10 -
20.10.2018 17:00:00 16,4 10,7 9 5 WSW 1029,4 10 -
20.10.2018 16:00:00 16,9 10,7 16 9 WSW 1029,4 10 -
20.10.2018 15:00:00 17,0 10,4 21 11 WSW 1029,4 10 -
20.10.2018 14:00:00 16,3 9,9 18 10 SW 1030,1 10 -
20.10.2018 13:00:00 16,2 10,1 16 9 WSW 1030,8 10 -
20.10.2018 12:00:00 15,1 9,9 15 8 WSW 1031,1 10 -
20.10.2018 11:00:00 13,1 9,3 13 7 SW 1031,1 10 -
20.10.2018 10:00:00 10,3 7,9 9 5 SW 1031,2 10 -
20.10.2018 09:00:00 8,7 7,0 5 3 SSW 1031,2 10 -
20.10.2018 08:00:00 4,5 3,2 0 0 N 1030,5 10 -
20.10.2018 07:00:00 3,6 2,3 0 0 N 1030,5 10 -
20.10.2018 06:00:00 3,7 2,4 0 0 N 1029,8 10 -
20.10.2018 05:00:00 4,2 2,9 0 0 N 1029,5 10 -
20.10.2018 04:00:00 4,2 2,7 0 0 N 1029,1 10 -
20.10.2018 03:00:00 4,2 2,9 0 0 N 1028,8 10 -
20.10.2018 02:00:00 4,0 2,7 0 0 N 1028,4 10 -
20.10.2018 01:00:00 4,4 2,6 5 3 SE 1028,4 10 -
20.10.2018 00:00:00 4,6 2,8 0 0 N 1028,1 10 -
19.10.2018 23:00:00 3,4 1,9 0 0 N 1028,1 10 -
19.10.2018 22:00:00 4,0 2,2 0 0 N 1027,8 10 -
19.10.2018 21:00:00 5,2 3,5 0 0 N 1027,4 10 -
19.10.2018 20:00:00 5,9 4,4 0 0 N 1027,4 10 -
19.10.2018 19:00:00 7,1 5,7 0 0 N 1027,1 10 -
19.10.2018 18:00:00 9,7 6,8 0 0 N 1026,4 10 -
19.10.2018 17:00:00 13,1 6,7 0 0 N 1025,7 10 -
19.10.2018 16:00:00 13,7 6,3 8 4 WNW 1026,1 10 -
19.10.2018 15:00:00 13,4 6,3 0 0 N 1025,7 10 -
19.10.2018 14:00:00 12,8 5,5 9 5 NW 1026,4 10 -
19.10.2018 13:00:00 10,5 10,0 5 3 WNW 1026,8 10 -
19.10.2018 12:00:00 8,0 7,6 4 2 W 1026,8 10 -
19.10.2018 11:00:00 5,8 5,4 0 0 N 1026,8 6 -
19.10.2018 10:00:00 4,8 4,2 0 0 N 1026,8 0,4 -
19.10.2018 09:00:00 3,6 3,0 8 4 W 1026,8 0,2 -
19.10.2018 08:00:00 2,7 2,0 0 0 N 1026,1 0,2 -
19.10.2018 07:00:00 2,2 1,5 5 3 SW 1025,4 0,8 0,0
19.10.2018 06:00:00 2,5 1,8 5 3 W 1026,1 0,8 -
19.10.2018 05:00:00 2,4 1,7 0 0 N 1026,1 2,6 -
19.10.2018 04:00:00 1,9 1,0 0 0 N 1026,1 0,6 0,0
19.10.2018 03:00:00 2,2 1,0 0 0 N 1026,4 0,8 -
19.10.2018 02:00:00 1,8 0,3 0 0 N 1026,4 1,0 -
19.10.2018 01:00:00 2,4 0,9 0 0 N 1026,7 10 -
19.10.2018 00:00:00 3,1 1,3 0 0 N 1026,4 10 -
18.10.2018 23:00:00 3,1 1,8 0 0 N 1026,8 10 -
18.10.2018 22:00:00 3,9 2,4 0 0 N 1027,1 10 -
18.10.2018 21:00:00 4,6 3,3 5 3 NE 1027,1 10 -
18.10.2018 20:00:00 5,6 3,9 8 4 ENE 1027,1 10 -
18.10.2018 19:00:00 7,6 5,2 5 3 NE 1027,1 10 -
18.10.2018 18:00:00 10,2 5,6 8 4 NNE 1027,4 10 -
18.10.2018 17:00:00 12,0 6,1 11 6 NNE 1027,1 10 -
18.10.2018 16:00:00 13,9 6,3 13 7 N 1027,1 10 -
18.10.2018 15:00:00 14,4 6,0 16 9 NNE 1027,1 10 -
18.10.2018 14:00:00 14,4 6,5 8 4 N 1027,4 10 -
18.10.2018 13:00:00 13,7 7,9 18 10 NNE 1027,4 10 -
18.10.2018 12:00:00 13,3 12,5 18 10 NNE 1027,7 10 -
18.10.2018 11:00:00 11,3 11,0 11 6 NNE 1028,1 10 -
18.10.2018 10:00:00 7,0 6,4 0 0 N 1027,8 10 -
18.10.2018 09:00:00 5,3 4,7 0 0 N 1027,4 0,4 -
18.10.2018 08:00:00 4,3 3,6 0 0 N 1026,8 0,2 -
18.10.2018 07:00:00 3,9 3,2 0 0 N 1026,4 1,0 -
18.10.2018 06:00:00 4,7 4,0 0 0 N 1025,7 0,8 -
18.10.2018 05:00:00 5,0 4,3 0 0 N 1025,7 0,6 -
18.10.2018 04:00:00 4,7 4,0 0 0 N 1025,7 0,4 -
18.10.2018 03:00:00 6,1 5,4 0 0 N 1025,4 0,4 -
18.10.2018 02:00:00 6,1 5,4 0 0 N 1025,4 0,2 -
18.10.2018 01:00:00 6,3 5,4 0 0 N 1025,0 0,6 -
18.10.2018 00:00:00 7,0 6,1 0 0 N 1024,7 0,6 -
17.10.2018 23:00:00 8,0 6,9 0 0 N 1024,4 1,2 -
17.10.2018 22:00:00 9,3 8,2 0 0 N 1023,7 10 -
17.10.2018 21:00:00 9,3 8,4 0 0 N 1023,0 10 -
17.10.2018 20:00:00 10,8 9,7 0 0 N 1022,3 10 -
17.10.2018 19:00:00 11,7 10,4 0 0 N 1021,6 10 -
17.10.2018 18:00:00 13,5 11,0 0 0 N 1021,0 10 -
17.10.2018 17:00:00 14,9 11,3 0 0 N 1020,3 10 -
17.10.2018 16:00:00 15,6 12,2 5 3 NNE 1019,6 10 -
17.10.2018 15:00:00 15,1 12,0 0 0 N 1019,6 10 -
17.10.2018 14:00:00 14,8 12,1 5 3 NW 1019,3 10 -
17.10.2018 13:00:00 14,0 12,0 8 4 W 1019,3 10 -
17.10.2018 12:00:00 13,3 12,2 8 4 WSW 1018,9 10 0,3
17.10.2018 11:00:00 12,8 11,7 9 5 WSW 1018,9 10 0,3
17.10.2018 10:00:00 13,0 11,0 8 4 SW 1018,3 10 0,3
17.10.2018 09:00:00 12,5 10,4 5 3 SSW 1017,9 9 0,0
17.10.2018 08:00:00 12,2 9,9 8 4 SSW 1017,6 10 -
17.10.2018 07:00:00 11,9 9,6 8 4 S 1016,9 10 -
17.10.2018 06:00:00 11,7 9,4 8 4 S 1016,5 10 -

tt = Température de l'air
td = dewpoint
ff = Vitesse du vent
dd = Direction du vent
ppp = reduced air pressure
vv = visibility
rr = Quantités de précipitations

stations d'obs. à proximité